This demonstration page uses our WeatherBlox Daily Observations layout. Learn more.

Left ArrowRight Arrow

31.31129, -92.44514

Hourly Observations for August 18, 2022

Temp ( °F °C ) Dew Point ( °F °C ) Humidity (%) Winds ( mph kmh ) Pressure ( in mb ) Visibility ( mi km ) Precip ( " mm )
12:53 am 00:53 Clear 83 28.3 74 23.3 74 74 Calm 29.92 1013 10 16 0.00 0.00
1:53 am 01:53 Mostly Clear 81 27.2 74 23.3 79 79 Calm 29.92 1013 10 16 0.00 0.00
2:53 am 02:53 Partly Cloudy 81 27.2 75 23.9 82 82 Calm 29.91 1013 10 16 0.00 0.00
3:53 am 03:53 Mostly Clear 81 27.2 75 23.9 82 82 N 3 6 29.89 1012 10 16 0.00 0.00
4:53 am 04:53 Mostly Clear 81 27.2 75 23.9 82 82 Calm 29.88 1012 9 14 0.00 0.00
5:53 am 05:53 Mostly Cloudy 81 27.2 76 24.4 85 85 N 3 6 29.90 1013 9 14 0.00 0.00
6:29 am 06:29 Cloudy with Nearby Thunderstorms 81 27.2 76 24.4 85 85 Calm 29.90 1012 9 14 0.00 0.00
6:43 am 06:43 Cloudy with Thunderstorms 81 27.2 75 23.9 82 82 W 13 20 29.91 1013 5 8 0.01 0.25
6:53 am 06:53 Cloudy with Strong Thunderstorms 77 25 70 21.1 79 79 NW 12 19 29.91 1013 3 5 0.05 1.27
7:01 am 07:01 Mostly Cloudy with Thunderstorms 76 24.4 68 20 77 77 NW 7 11 29.91 1013 8 13 0.01 0.13
7:10 am 07:10 Mostly Cloudy with Nearby Thunderstorms 76 24.4 69 20.6 79 79 Calm 29.91 1013 10 16 0.01 0.13
7:33 am 07:33 Mostly Cloudy with Rain 76 24.4 72 22.2 88 88 Calm 29.92 1013 5 8 0.02 0.51
7:53 am 07:53 Partly Cloudy 77 25 74 23.3 90 90 Calm 29.93 1014 8 13 0.03 0.76
8:36 am 08:36 Mostly Cloudy 79 26.1 74 23.3 85 85 N 3 6 29.93 1013 9 14 0.00 0.00
9:01 am 09:01 Cloudy 78 25.6 74 23.3 87 87 ENE 8 13 29.95 1014 8 13 0.00 0.00
9:26 am 09:26 Cloudy 77 25 73 22.8 88 88 ENE 8 13 29.96 1014 8 13 0.00 0.00
9:36 am 09:36 Cloudy 77 25 74 23.3 90 90 E 5 7 29.96 1014 9 14 0.00 0.00
9:53 am 09:53 Mostly Cloudy 78 25.6 73 22.8 85 85 E 6 9 29.96 1015 10 16 0.00 0.00
10:13 am 10:13 Mostly Cloudy 78 25.6 73 22.8 85 85 E 6 9 29.96 1014 10 16 0.00 0.00
10:22 am 10:22 Mostly Cloudy 78 25.6 73 22.8 85 85 ESE 6 9 29.96 1014 10 16 0.00 0.00
10:53 am 10:53 Cloudy 80 26.7 73 22.8 79 79 ESE 5 7 29.98 1015 10 16 0.00 0.00
11:20 am 11:20 Mostly Cloudy 81 27.2 72 22.2 74 74 ESE 7 11 29.97 1015 10 16 0.00 0.00
11:27 am 11:27 Mostly Cloudy 82 27.8 73 22.8 74 74 E 8 13 29.97 1015 10 16 0.00 0.00
11:41 am 11:41 Cloudy 82 27.8 72 22.2 72 72 E 5 7 29.95 1014 10 16 0.00 0.00
11:53 am 11:53 Mostly Cloudy 82 27.8 72 22.2 72 72 VRB 7 11 29.96 1015 10 16 0.00 0.00
12:36 pm 12:36 Cloudy with Heavy Rain 81 27.2 73 22.8 77 77 ESE 10 17 29.97 1015 2 2 0.15 3.81
12:41 pm 12:41 Cloudy with Strong Thunderstorms 79 26.1 73 22.8 82 82 VRB 6 9 29.96 1014 1 1 0.24 6.10
12:57 pm 12:57 Cloudy with Thunderstorms 79 26.1 74 23.3 85 85 Calm 29.97 1015 1 2 0.01 0.13
1:01 pm 13:01 Cloudy with Light Rain 80 26.7 74 23.3 82 82 Calm 29.97 1015 3 5 0.01 0.13
1:10 pm 13:10 Mostly Cloudy 80 26.7 73 22.8 79 79 Calm 29.95 1014 10 16 0.01 0.13
1:53 pm 13:53 Partly Cloudy 82 27.8 74 23.3 77 77 E 5 7 29.94 1014 10 16 0.01 0.13
2:53 pm 14:53 Sunny 85 29.4 72 22.2 65 65 E 7 11 29.92 1013 10 16 0.00 0.00
3:53 pm 15:53 Sunny 86 30 71 21.7 61 61 ENE 6 9 29.91 1013 10 16 0.00 0.00
4:53 pm 16:53 Mostly Cloudy 87 30.6 71 21.7 59 59 ENE 5 7 29.91 1013 10 16 0.00 0.00
5:53 pm 17:53 Sunny 84 28.9 72 22.2 67 67 ESE 7 11 29.91 1013 10 16 0.00 0.00
6:27 pm 18:27 Mostly Cloudy 85 29.4 74 23.3 70 70 S 9 15 29.91 1013 10 16 0.00 0.00
6:38 pm 18:38 Mostly Cloudy 85 29.4 74 23.3 70 70 S 9 15 29.91 1013 10 16 0.00 0.00
6:53 pm 18:53 Mostly Cloudy 84 28.9 74 23.3 72 72 S 6 9 29.91 1013 10 16 0.00 0.00
7:53 pm 19:53 Mostly Cloudy 82 27.8 75 23.9 79 79 S 3 6 29.90 1013 10 16 0.00 0.00
8:53 pm 20:53 Clear 80 26.7 74 23.3 82 82 S 5 7 29.90 1013 10 16 0.00 0.00
9:53 pm 21:53 Clear 79 26.1 74 23.3 85 85 Calm 29.92 1013 10 16 0.00 0.00
10:53 pm 22:53 Mostly Cloudy 79 26.1 75 23.9 88 88 Calm 29.94 1014 10 16 0.00 0.00
11:53 pm 23:53 Cloudy 78 25.6 74 23.3 87 87 S 5 7 29.94 1014 10 16 0.00 0.00

Powered by AerisWeather